| time (UTC) | temp C | wind direction | speed KPH | gust KPH | rain 1hr cm | rain 24hr cm | rain mn cm | humidity % | barometer mb |
| 20260509211919 | 30 | 183 | 0.0 | 0.0 | 0.00 | 0.03 | 0.03 | 53 | 1010.0 |
| 20260509211415 | 29 | 273 | 1.6 | 1.6 | 0.00 | 0.03 | 0.03 | 52 | 1010.0 |
| 20260509210911 | 28 | 242 | 1.6 | 3.2 | 0.00 | 0.03 | 0.03 | 54 | 1010.3 |
| 20260509210409 | 28 | 239 | 1.6 | 1.6 | 0.00 | 0.03 | 0.03 | 58 | 1010.3 |
| 20260509205904 | 27 | 282 | 0.0 | 1.6 | 0.00 | 0.03 | 0.03 | 57 | 1010.7 |
| 20260509205403 | 27 | 322 | 3.2 | 3.2 | 0.00 | 0.03 | 0.03 | 69 | 1010.3 |
| 20260509204900 | 26 | 228 | 1.6 | 1.6 | 0.00 | 0.03 | 0.03 | 70 | 1010.7 |
| 20260509204356 | 25 | 192 | 1.6 | 1.6 | 0.00 | 0.03 | 0.03 | 73 | 1010.7 |
| 20260509203853 | 25 | 246 | 1.6 | 1.6 | 0.00 | 0.03 | 0.03 | 76 | 1010.7 |
| 20260509203349 | 23 | 255 | 0.0 | 0.0 | 0.00 | 0.03 | 0.03 | 79 | 1010.7 |
| 20260509202847 | 23 | 245 | 0.0 | 0.0 | 0.00 | 0.03 | 0.03 | 80 | 1010.0 |
| 20260509202342 | 23 | 292 | 1.6 | 1.6 | 0.00 | 0.03 | 0.03 | 79 | 1010.7 |
| 20260509201837 | 23 | 313 | 0.0 | 0.0 | 0.00 | 0.03 | 0.03 | 79 | 1010.7 |
| 20260509201328 | 23 | 316 | 1.6 | 1.6 | 0.00 | 0.03 | 0.03 | 76 | 1010.7 |
| 20260509200824 | 24 | 267 | 1.6 | 1.6 | 0.00 | 0.03 | 0.03 | 71 | 1011.0 |
| 20260509200320 | 25 | 328 | 4.8 | 4.8 | 0.00 | 0.03 | 0.03 | 64 | 1011.7 |
| 20260509195817 | 25 | 293 | 6.4 | 8.0 | 0.00 | 0.03 | 0.03 | 58 | 1011.3 |
| 20260509195317 | 25 | 10 | 9.7 | 12.9 | 0.00 | 0.03 | 0.03 | 55 | 1011.3 |
| 20260509194817 | 26 | 350 | 9.7 | 11.3 | 0.00 | 0.03 | 0.03 | 56 | 1011.3 |
| 20260509194313 | 30 | 346 | 8.0 | 9.7 | 0.00 | 0.03 | 0.03 | 58 | 1011.3 |
| 20260509193810 | 30 | 59 | 0.0 | 0.0 | 0.00 | 0.03 | 0.03 | 63 | 1011.3 |
| 20260509193309 | 31 | 62 | 4.8 | 4.8 | 0.00 | 0.03 | 0.03 | 62 | 1011.0 |
| 20260509192806 | 31 | 190 | 4.8 | 4.8 | 0.00 | 0.03 | 0.03 | 60 | 1010.7 |
| 20260509192305 | 32 | 189 | 3.2 | 4.8 | 0.00 | 0.03 | 0.03 | 60 | 1010.7 |
| 20260509191757 | 32 | 234 | 0.0 | 1.6 | 0.00 | 0.03 | 0.03 | 59 | 1011.0 |
| 20260509191253 | 31 | 212 | 6.4 | 9.7 | 0.00 | 0.03 | 0.03 | 59 | 1011.3 |
| 20260509190749 | 31 | 210 | 4.8 | 8.0 | 0.00 | 0.03 | 0.03 | 61 | 1011.0 |
| 20260509190247 | 32 | 230 | 3.2 | 3.2 | 0.00 | 0.03 | 0.03 | 60 | 1011.0 |
| 20260509185744 | 31 | 196 | 4.8 | 9.7 | 0.00 | 0.03 | 0.03 | 63 | 1011.0 |
| 20260509185240 | 31 | 132 | 3.2 | 8.0 | 0.00 | 0.03 | 0.03 | 64 | 1011.3 |
| 20260509184738 | 32 | 158 | 1.6 | 1.6 | 0.00 | 0.03 | 0.03 | 62 | 1011.3 |
| 20260509184235 | 31 | 212 | 4.8 | 8.0 | 0.00 | 0.03 | 0.03 | 62 | 1011.7 |
| 20260509183731 | 31 | 273 | 0.0 | 1.6 | 0.00 | 0.03 | 0.03 | 63 | 1011.7 |
| 20260509183226 | 32 | 96 | 4.8 | 4.8 | 0.00 | 0.03 | 0.03 | 61 | 1011.7 |
| 20260509182722 | 31 | 203 | 0.0 | 0.0 | 0.00 | 0.03 | 0.03 | 66 | 1011.7 |
| 20260509182220 | 31 | 268 | 3.2 | 3.2 | 0.00 | 0.03 | 0.03 | 64 | 1012.0 |
| 20260509181717 | 30 | 183 | 1.6 | 4.8 | 0.00 | 0.03 | 0.03 | 66 | 1011.7 |
| 20260509181215 | 30 | 212 | 3.2 | 3.2 | 0.00 | 0.03 | 0.03 | 67 | 1012.0 |
| 20260509180712 | 30 | 208 | 4.8 | 4.8 | 0.00 | 0.03 | 0.03 | 66 | 1012.0 |
| 20260509180208 | 30 | 183 | 4.8 | 4.8 | 0.00 | 0.03 | 0.03 | 69 | 1012.0 |
| 20260509175704 | 30 | 240 | 1.6 | 1.6 | 0.00 | 0.03 | 0.03 | 70 | 1012.4 |
| 20260509175201 | 30 | 152 | 1.6 | 1.6 | 0.00 | 0.03 | 0.03 | 69 | 1012.0 |
| 20260509174656 | 30 | 209 | 3.2 | 3.2 | 0.00 | 0.03 | 0.03 | 68 | 1012.4 |
| 20260509174151 | 30 | 253 | 0.0 | 1.6 | 0.00 | 0.03 | 0.03 | 70 | 1012.4 |
| 20260509173648 | 29 | 274 | 0.0 | 1.6 | 0.00 | 0.03 | 0.03 | 71 | 1012.7 |
| 20260509173143 | 29 | 184 | 6.4 | 8.0 | 0.00 | 0.03 | 0.03 | 70 | 1012.7 |
| 20260509172640 | 28 | 239 | 1.6 | 3.2 | 0.00 | 0.03 | 0.03 | 73 | 1012.7 |
| 20260509172136 | 28 | 190 | 3.2 | 3.2 | 0.00 | 0.03 | 0.03 | 75 | 1012.7 |
| 20260509171632 | 28 | 184 | 4.8 | 4.8 | 0.00 | 0.03 | 0.03 | 74 | 1012.7 |
| 20260509171128 | 28 | 239 | 4.8 | 4.8 | 0.00 | 0.03 | 0.03 | 77 | 1012.4 |
| 20260509170625 | 28 | 287 | 3.2 | 3.2 | 0.00 | 0.03 | 0.03 | 73 | 1012.4 |
| 20260509170121 | 28 | 175 | 6.4 | 9.7 | 0.00 | 0.03 | 0.03 | 74 | 1012.4 |
| 20260509165619 | 28 | 288 | 3.2 | 8.0 | 0.00 | 0.03 | 0.03 | 76 | 1012.4 |
| 20260509165115 | 28 | 247 | 4.8 | 4.8 | 0.00 | 0.03 | 0.03 | 77 | 1012.4 |
| 20260509164611 | 28 | 218 | 3.2 | 3.2 | 0.00 | 0.03 | 0.03 | 76 | 1012.4 |
| 20260509164107 | 27 | 228 | 1.6 | 1.6 | 0.00 | 0.03 | 0.03 | 77 | 1012.7 |
| 20260509163606 | 27 | 292 | 4.8 | 4.8 | 0.00 | 0.03 | 0.03 | 78 | 1012.7 |
| 20260509163101 | 27 | 194 | 4.8 | 4.8 | 0.00 | 0.03 | 0.03 | 79 | 1012.7 |
| 20260509162558 | 27 | 188 | 6.4 | 9.7 | 0.00 | 0.03 | 0.03 | 79 | 1012.7 |
| 20260509162054 | 27 | 253 | 3.2 | 3.2 | 0.00 | 0.03 | 0.03 | 79 | 1012.7 |
| 20260509161550 | 27 | 200 | 4.8 | 8.0 | 0.00 | 0.03 | 0.03 | 80 | 1012.7 |
| 20260509161045 | 27 | 133 | 4.8 | 8.0 | 0.00 | 0.03 | 0.03 | 79 | 1012.7 |
| 20260509160541 | 27 | 230 | 1.6 | 3.2 | 0.00 | 0.03 | 0.03 | 80 | 1012.7 |
| 20260509160037 | 26 | 207 | 3.2 | 3.2 | 0.00 | 0.03 | 0.03 | 81 | 1012.7 |
| 20260509155533 | 27 | 173 | 6.4 | 8.0 | 0.00 | 0.03 | 0.03 | 80 | 1012.4 |
| 20260509155029 | 27 | 270 | 4.8 | 8.0 | 0.00 | 0.03 | 0.03 | 79 | 1012.7 |
| 20260509154526 | 27 | 229 | 3.2 | 4.8 | 0.00 | 0.03 | 0.03 | 78 | 1012.7 |
| 20260509154023 | 27 | 187 | 6.4 | 8.0 | 0.00 | 0.03 | 0.03 | 80 | 1012.7 |
| 20260509153520 | 27 | 192 | 3.2 | 4.8 | 0.00 | 0.03 | 0.03 | 80 | 1012.7 |
| 20260509153017 | 26 | 234 | 6.4 | 8.0 | 0.00 | 0.03 | 0.03 | 82 | 1012.7 |
| 20260509152513 | 26 | 197 | 3.2 | 3.2 | 0.00 | 0.03 | 0.03 | 84 | 1012.7 |
| 20260509152009 | 26 | 231 | 6.4 | 8.0 | 0.00 | 0.03 | 0.03 | 84 | 1012.7 |
| 20260509151506 | 26 | 202 | 8.0 | 11.3 | 0.00 | 0.03 | 0.03 | 85 | 1012.7 |
| 20260509151005 | 25 | 254 | 6.4 | 9.7 | 0.00 | 0.03 | 0.03 | 86 | 1012.7 |
| 20260509150501 | 25 | 271 | 8.0 | 11.3 | 0.00 | 0.03 | 0.03 | 89 | 1012.7 |
| 20260509145959 | 24 | 161 | 6.4 | 9.7 | 0.00 | 0.03 | 0.03 | 92 | 1012.7 |
| 20260509145455 | 23 | 200 | 4.8 | 8.0 | 0.00 | 0.03 | 0.03 | 94 | 1012.7 |
| 20260509144950 | 23 | 200 | 1.6 | 3.2 | 0.00 | 0.03 | 0.03 | 96 | 1012.4 |
| 20260509144447 | 23 | 189 | 3.2 | 4.8 | 0.00 | 0.03 | 0.03 | 97 | 1012.4 |
| 20260509143944 | 23 | 203 | 4.8 | 4.8 | 0.00 | 0.03 | 0.03 | 98 | 1012.4 |
| 20260509143441 | 23 | 236 | 1.6 | 1.6 | 0.00 | 0.03 | 0.03 | 98 | 1012.4 |
| 20260509142938 | 23 | 183 | 3.2 | 4.8 | 0.00 | 0.03 | 0.03 | 98 | 1012.4 |
| 20260509142434 | 23 | 161 | 3.2 | 4.8 | 0.00 | 0.03 | 0.03 | 98 | 1012.4 |
| 20260509141930 | 23 | 157 | 3.2 | 4.8 | 0.00 | 0.03 | 0.03 | 98 | 1012.0 |
| 20260509141427 | 22 | 193 | 3.2 | 3.2 | 0.00 | 0.03 | 0.03 | 99 | 1012.0 |
| 20260509140924 | 22 | 207 | 1.6 | 1.6 | 0.00 | 0.03 | 0.03 | 98 | 1012.4 |
| 20260509140420 | 22 | 207 | 1.6 | 3.2 | 0.00 | 0.03 | 0.03 | 98 | 1012.4 |
| 20260509135918 | 22 | 168 | 3.2 | 3.2 | 0.00 | 0.03 | 0.03 | 98 | 1012.7 |
| 20260509135416 | 22 | 247 | 0.0 | 0.0 | 0.00 | 0.03 | 0.03 | 98 | 1012.7 |
| 20260509134913 | 22 | 149 | 1.6 | 1.6 | 0.00 | 0.03 | 0.03 | 98 | 1012.7 |
| 20260509134410 | 22 | 207 | 1.6 | 1.6 | 0.00 | 0.03 | 0.03 | 98 | 1012.7 |
| 20260509133907 | 22 | 206 | 0.0 | 1.6 | 0.00 | 0.03 | 0.03 | 98 | 1012.7 |
| 20260509133403 | 22 | 214 | 1.6 | 1.6 | 0.00 | 0.03 | 0.03 | 98 | 1012.7 |
| 20260509132902 | 22 | 239 | 0.0 | 1.6 | 0.00 | 0.03 | 0.03 | 98 | 1012.7 |
| 20260509132400 | 22 | 241 | 0.0 | 0.0 | 0.00 | 0.03 | 0.03 | 98 | 1012.4 |
| 20260509131857 | 22 | 202 | 0.0 | 1.6 | 0.00 | 0.03 | 0.03 | 98 | 1012.7 |
| 20260509131354 | 22 | 240 | 0.0 | 0.0 | 0.00 | 0.03 | 0.03 | 98 | 1012.7 |
| 20260509130850 | 22 | 238 | 1.6 | 1.6 | 0.00 | 0.03 | 0.03 | 98 | 1012.7 |
| 20260509130345 | 22 | 267 | 0.0 | 0.0 | 0.00 | 0.03 | 0.03 | 98 | 1012.0 |
| 20260509125843 | 22 | 268 | 0.0 | 0.0 | 0.03 | 0.03 | 0.03 | 98 | 1012.0 |
| 20260509125339 | 22 | 256 | 0.0 | 0.0 | 0.03 | 0.03 | 0.03 | 98 | 1012.0 |
| 20260509124835 | 22 | 297 | 1.6 | 3.2 | 0.03 | 0.03 | 0.03 | 98 | 1012.0 |
| 20260509124332 | 22 | 304 | 1.6 | 1.6 | 0.03 | 0.03 | 0.03 | 98 | 1011.7 |
| 20260509123830 | 22 | 305 | 0.0 | 0.0 | 0.03 | 0.03 | 0.03 | 98 | 1011.7 |
| 20260509123327 | 22 | 336 | 3.2 | 3.2 | 0.03 | 0.03 | 0.03 | 98 | 1012.0 |
| 20260509122823 | 22 | 296 | 1.6 | 1.6 | 0.03 | 0.03 | 0.03 | 98 | 1012.0 |
| 20260509122320 | 22 | 292 | 1.6 | 1.6 | 0.03 | 0.03 | 0.03 | 98 | 1012.7 |
| 20260509121817 | 22 | 258 | 0.0 | 0.0 | 0.00 | 0.00 | 0.00 | 98 | 1012.4 |
| 20260509121314 | 22 | 263 | 0.0 | 0.0 | 0.00 | 0.00 | 0.00 | 98 | 1012.4 |
| 20260509120813 | 22 | 261 | 0.0 | 0.0 | 0.00 | 0.00 | 0.00 | 98 | 1012.4 |
| 20260509120310 | 22 | 293 | 1.6 | 1.6 | 0.00 | 0.00 | 0.00 | 98 | 1012.0 |
| 20260509115808 | 22 | 270 | 0.0 | 0.0 | 0.00 | 0.00 | 0.00 | 98 | 1012.4 |
| 20260509115307 | 22 | 272 | 0.0 | 0.0 | 0.00 | 0.00 | 0.00 | 98 | 1012.0 |
| 20260509114803 | 22 | 285 | 0.0 | 0.0 | 0.00 | 0.00 | 0.00 | 98 | 1012.4 |
| 20260509114301 | 22 | 308 | 0.0 | 1.6 | 0.00 | 0.00 | 0.00 | 98 | 1012.4 |
| 20260509113800 | 22 | 323 | 3.2 | 3.2 | 0.00 | 0.00 | 0.00 | 98 | 1012.7 |
| 20260509113256 | 22 | 335 | 1.6 | 3.2 | 0.00 | 0.00 | 0.00 | 98 | 1012.7 |
| 20260509112753 | 22 | 304 | 1.6 | 1.6 | 0.00 | 0.00 | 0.00 | 98 | 1012.7 |
| 20260509112250 | 22 | 281 | 1.6 | 1.6 | 0.00 | 0.00 | 0.00 | 98 | 1012.7 |
| 20260509111747 | 22 | 323 | 3.2 | 3.2 | 0.00 | 0.00 | 0.00 | 98 | 1012.7 |
| 20260509111244 | 22 | 278 | 1.6 | 1.6 | 0.00 | 0.00 | 0.00 | 98 | 1012.7 |
| 20260509110741 | 22 | 0 | 3.2 | 4.8 | 0.00 | 0.00 | 0.00 | 98 | 1013.1 |
| 20260509110238 | 22 | 327 | 3.2 | 3.2 | 0.00 | 0.00 | 0.00 | 98 | 1012.7 |
| 20260509105736 | 22 | 221 | 0.0 | 1.6 | 0.00 | 0.00 | 0.00 | 98 | 1012.7 |
| 20260509105233 | 22 | 252 | 0.0 | 0.0 | 0.00 | 0.00 | 0.00 | 98 | 1013.1 |
| 20260509104730 | 22 | 323 | 3.2 | 3.2 | 0.00 | 0.00 | 0.00 | 98 | 1013.1 |
| 20260509104227 | 22 | 326 | 3.2 | 3.2 | 0.00 | 0.00 | 0.00 | 98 | 1013.1 |
| 20260509103725 | 22 | 354 | 4.8 | 4.8 | 0.00 | 0.00 | 0.00 | 98 | 1013.5 |
| 20260509103222 | 22 | 328 | 3.2 | 3.2 | 0.00 | 0.00 | 0.00 | 98 | 1013.5 |
| 20260509102720 | 22 | 335 | 3.2 | 3.2 | 0.00 | 0.00 | 0.00 | 98 | 1013.5 |
| 20260509102217 | 22 | 334 | 3.2 | 3.2 | 0.00 | 0.00 | 0.00 | 98 | 1013.1 |
| 20260509101713 | 22 | 327 | 3.2 | 3.2 | 0.00 | 0.00 | 0.00 | 97 | 1012.7 |
| 20260509101210 | 22 | 296 | 1.6 | 1.6 | 0.00 | 0.00 | 0.00 | 97 | 1012.7 |
| 20260509100708 | 22 | 271 | 0.0 | 0.0 | 0.00 | 0.00 | 0.00 | 97 | 1012.4 |
| 20260509100204 | 22 | 258 | 0.0 | 0.0 | 0.00 | 0.00 | 0.00 | 97 | 1012.0 |
| 20260509095701 | 22 | 254 | 0.0 | 0.0 | 0.00 | 0.00 | 0.00 | 97 | 1012.0 |
| 20260509095158 | 22 | 254 | 0.0 | 0.0 | 0.00 | 0.00 | 0.00 | 97 | 1012.0 |
| 20260509094655 | 22 | 254 | 0.0 | 0.0 | 0.00 | 0.00 | 0.00 | 97 | 1011.7 |
| 20260509094152 | 22 | 254 | 0.0 | 0.0 | 0.00 | 0.00 | 0.00 | 97 | 1011.7 |
| 20260509093651 | 22 | 254 | 0.0 | 0.0 | 0.00 | 0.00 | 0.00 | 97 | 1011.7 |
| 20260509093147 | 22 | 247 | 0.0 | 0.0 | 0.00 | 0.00 | 0.00 | 97 | 1011.7 |
| 20260509092645 | 22 | 232 | 0.0 | 0.0 | 0.00 | 0.00 | 0.00 | 97 | 1011.7 |
| 20260509092143 | 22 | 244 | 0.0 | 0.0 | 0.00 | 0.00 | 0.00 | 97 | 1011.7 |
| 20260509091641 | 22 | 273 | 0.0 | 0.0 | 0.00 | 0.00 | 0.00 | 97 | 1011.7 |
| 20260509091137 | 22 | 282 | 0.0 | 0.0 | 0.00 | 0.00 | 0.00 | 97 | 1011.7 |
| 20260509090635 | 22 | 258 | 0.0 | 0.0 | 0.00 | 0.00 | 0.00 | 97 | 1011.7 |
| 20260509090132 | 22 | 27 | 0.0 | 0.0 | 0.00 | 0.00 | 0.00 | 97 | 1011.7 |
| 20260509085629 | 22 | 209 | 1.6 | 3.2 | 0.00 | 0.00 | 0.00 | 97 | 1011.7 |
| 20260509085125 | 22 | 228 | 0.0 | 0.0 | 0.00 | 0.00 | 0.00 | 97 | 1011.7 |
| 20260509084622 | 22 | 243 | 0.0 | 0.0 | 0.00 | 0.00 | 0.00 | 97 | 1011.7 |
| 20260509084119 | 22 | 246 | 0.0 | 0.0 | 0.00 | 0.00 | 0.00 | 96 | 1011.7 |
| 20260509083617 | 22 | 282 | 0.0 | 1.6 | 0.00 | 0.00 | 0.00 | 96 | 1011.7 |
| 20260509083113 | 22 | 323 | 0.0 | 0.0 | 0.00 | 0.00 | 0.00 | 96 | 1012.0 |
| 20260509082611 | 22 | 311 | 0.0 | 0.0 | 0.00 | 0.00 | 0.00 | 96 | 1012.4 |
| 20260509082107 | 22 | 311 | 0.0 | 0.0 | 0.00 | 0.00 | 0.00 | 96 | 1012.4 |
| 20260509081605 | 22 | 312 | 1.6 | 1.6 | 0.00 | 0.00 | 0.00 | 96 | 1012.7 |
| 20260509081101 | 22 | 315 | 0.0 | 0.0 | 0.00 | 0.00 | 0.00 | 96 | 1012.0 |
| 20260509080600 | 22 | 311 | 1.6 | 1.6 | 0.00 | 0.00 | 0.00 | 95 | 1012.0 |
| 20260509080057 | 22 | 40 | 0.0 | 1.6 | 0.00 | 0.00 | 0.00 | 95 | 1012.0 |
| 20260509075555 | 22 | 286 | 0.0 | 0.0 | 0.00 | 0.00 | 0.00 | 95 | 1012.0 |
| 20260509075053 | 22 | 308 | 1.6 | 1.6 | 0.00 | 0.00 | 0.00 | 95 | 1011.7 |
| 20260509074549 | 22 | 24 | 0.0 | 0.0 | 0.00 | 0.00 | 0.00 | 95 | 1012.0 |
| 20260509074046 | 22 | 276 | 0.0 | 0.0 | 0.00 | 0.00 | 0.00 | 95 | 1012.0 |
| 20260509073542 | 22 | 278 | 0.0 | 0.0 | 0.00 | 0.00 | 0.00 | 95 | 1012.0 |
| 20260509073039 | 22 | 279 | 0.0 | 0.0 | 0.00 | 0.00 | 0.00 | 95 | 1012.4 |
| 20260509072535 | 22 | 290 | 0.0 | 0.0 | 0.00 | 0.00 | 0.00 | 95 | 1012.4 |
| 20260509072032 | 22 | 293 | 1.6 | 1.6 | 0.00 | 0.00 | 0.00 | 95 | 1012.0 |
| 20260509071529 | 22 | 268 | 0.0 | 0.0 | 0.00 | 0.00 | 0.00 | 95 | 1012.4 |
| 20260509071026 | 22 | 262 | 0.0 | 0.0 | 0.00 | 0.00 | 0.00 | 95 | 1012.7 |
| 20260509070523 | 22 | 261 | 0.0 | 0.0 | 0.00 | 0.00 | 0.00 | 95 | 1012.4 |
| 20260509070020 | 22 | 247 | 0.0 | 0.0 | 0.00 | 0.00 | 0.00 | 95 | 1012.0 |
| 20260509065515 | 22 | 235 | 1.6 | 1.6 | 0.00 | 0.00 | 0.00 | 95 | 1012.0 |
| 20260509065012 | 22 | 235 | 1.6 | 1.6 | 0.00 | 0.00 | 0.00 | 95 | 1012.0 |
| 20260509064509 | 22 | 201 | 1.6 | 3.2 | 0.00 | 0.00 | 0.00 | 95 | 1012.0 |
| 20260509064007 | 22 | 206 | 1.6 | 3.2 | 0.00 | 0.00 | 0.00 | 95 | 1012.0 |
| 20260509063502 | 22 | 225 | 1.6 | 1.6 | 0.00 | 0.00 | 0.00 | 95 | 1012.0 |
| 20260509063000 | 22 | 260 | 1.6 | 3.2 | 0.00 | 0.00 | 0.00 | 94 | 1012.4 |
| 20260509062457 | 22 | 201 | 6.4 | 8.0 | 0.00 | 0.00 | 0.00 | 94 | 1012.4 |
| 20260509061955 | 22 | 226 | 0.0 | 0.0 | 0.00 | 0.00 | 0.00 | 94 | 1011.7 |
| 20260509061451 | 22 | 251 | 0.0 | 0.0 | 0.00 | 0.00 | 0.00 | 94 | 1011.7 |
| 20260509060949 | 22 | 232 | 3.2 | 3.2 | 0.00 | 0.00 | 0.00 | 94 | 1011.7 |
| 20260509060446 | 22 | 211 | 0.0 | 1.6 | 0.00 | 0.00 | 0.00 | 94 | 1011.7 |
| 20260509055942 | 22 | 219 | 3.2 | 4.8 | 0.00 | 0.00 | 0.00 | 94 | 1011.7 |
| 20260509055437 | 22 | 196 | 4.8 | 8.0 | 0.00 | 0.00 | 0.00 | 94 | 1012.0 |
| 20260509054933 | 22 | 153 | 1.6 | 3.2 | 0.00 | 0.00 | 0.00 | 94 | 1012.4 |
| 20260509054430 | 22 | 185 | 1.6 | 1.6 | 0.00 | 0.00 | 0.00 | 94 | 1011.7 |
| 20260509053929 | 22 | 159 | 1.6 | 1.6 | 0.00 | 0.00 | 0.00 | 93 | 1011.7 |
| 20260509053426 | 22 | 171 | 6.4 | 12.9 | 0.00 | 0.00 | 0.00 | 93 | 1011.7 |
| 20260509052923 | 22 | 187 | 6.4 | 8.0 | 0.00 | 0.00 | 0.00 | 93 | 1011.7 |
| 20260509052421 | 22 | 200 | 3.2 | 3.2 | 0.00 | 0.00 | 0.00 | 92 | 1011.3 |
| 20260509051919 | 22 | 202 | 3.2 | 3.2 | 0.00 | 0.00 | 0.00 | 92 | 1011.7 |
| 20260509051416 | 22 | 212 | 6.4 | 8.0 | 0.00 | 0.00 | 0.00 | 92 | 1011.3 |
| 20260509050913 | 22 | 240 | 1.6 | 1.6 | 0.00 | 0.00 | 0.00 | 92 | 1011.7 |
| 20260509050410 | 22 | 148 | 1.6 | 1.6 | 0.00 | 0.00 | 0.00 | 92 | 1011.7 |
| 20260509045907 | 22 | 156 | 3.2 | 3.2 | 0.00 | 0.00 | 0.00 | 92 | 1011.3 |
| 20260509045403 | 22 | 212 | 1.6 | 1.6 | 0.00 | 0.00 | 0.00 | 91 | 1011.3 |
| 20260509044901 | 22 | 243 | 0.0 | 0.0 | 0.00 | 0.00 | 0.00 | 91 | 1011.3 |
| 20260509044358 | 22 | 206 | 1.6 | 1.6 | 0.00 | 0.00 | 0.00 | 91 | 1011.3 |
| 20260509043855 | 23 | 215 | 0.0 | 1.6 | 0.00 | 0.00 | 0.00 | 90 | 1011.3 |
| 20260509043351 | 23 | 223 | 1.6 | 1.6 | 0.00 | 0.00 | 0.00 | 90 | 1011.7 |
| 20260509042847 | 23 | 137 | 1.6 | 3.2 | 0.00 | 0.00 | 0.00 | 90 | 1011.3 |
| 20260509042343 | 23 | 241 | 1.6 | 1.6 | 0.00 | 0.00 | 0.00 | 89 | 1011.7 |
| 20260509041840 | 23 | 232 | 1.6 | 1.6 | 0.00 | 0.00 | 0.00 | 89 | 1011.7 |
| 20260509041337 | 23 | 204 | 0.0 | 1.6 | 0.00 | 0.00 | 0.00 | 89 | 1011.7 |
| 20260509040835 | 23 | 239 | 0.0 | 0.0 | 0.00 | 0.00 | 0.00 | 88 | 1011.7 |
| 20260509040333 | 23 | 236 | 0.0 | 1.6 | 0.00 | 0.00 | 0.00 | 88 | 1011.7 |
| 20260509035829 | 23 | 227 | 0.0 | 0.0 | 0.00 | 0.00 | 0.00 | 87 | 1011.7 |
| 20260509035327 | 23 | 230 | 0.0 | 0.0 | 0.00 | 0.00 | 0.00 | 87 | 1011.7 |
| 20260509034822 | 23 | 227 | 1.6 | 1.6 | 0.00 | 0.00 | 0.00 | 87 | 1011.7 |
| 20260509034321 | 23 | 214 | 3.2 | 3.2 | 0.00 | 0.00 | 0.00 | 87 | 1011.7 |
| 20260509033817 | 23 | 242 | 0.0 | 1.6 | 0.00 | 0.00 | 0.00 | 87 | 1011.7 |
| 20260509033315 | 23 | 221 | 1.6 | 1.6 | 0.00 | 0.00 | 0.00 | 87 | 1011.7 |
| 20260509032811 | 23 | 247 | 0.0 | 1.6 | 0.00 | 0.00 | 0.00 | 87 | 1011.7 |
| 20260509032308 | 23 | 219 | 0.0 | 1.6 | 0.00 | 0.00 | 0.00 | 87 | 1011.7 |
| 20260509031806 | 23 | 243 | 0.0 | 0.0 | 0.00 | 0.00 | 0.00 | 87 | 1011.3 |
| 20260509031303 | 23 | 259 | 0.0 | 0.0 | 0.00 | 0.00 | 0.00 | 87 | 1011.3 |
| 20260509030801 | 23 | 210 | 0.0 | 1.6 | 0.00 | 0.00 | 0.00 | 86 | 1011.3 |
| 20260509030259 | 23 | 219 | 0.0 | 1.6 | 0.00 | 0.00 | 0.00 | 86 | 1011.0 |
| 20260509025755 | 23 | 189 | 1.6 | 1.6 | 0.00 | 0.00 | 0.00 | 85 | 1011.3 |
| 20260509025250 | 23 | 238 | 1.6 | 1.6 | 0.00 | 0.00 | 0.00 | 85 | 1011.3 |
| 20260509024746 | 23 | 189 | 1.6 | 1.6 | 0.00 | 0.00 | 0.00 | 85 | 1011.0 |
| 20260509024242 | 23 | 225 | 1.6 | 1.6 | 0.00 | 0.00 | 0.00 | 84 | 1011.3 |
| 20260509023740 | 24 | 227 | 1.6 | 1.6 | 0.00 | 0.00 | 0.00 | 84 | 1011.0 |
| 20260509023237 | 24 | 249 | 1.6 | 1.6 | 0.00 | 0.00 | 0.00 | 84 | 1011.0 |
| 20260509022733 | 24 | 231 | 0.0 | 0.0 | 0.00 | 0.00 | 0.00 | 83 | 1011.0 |
| 20260509022231 | 24 | 179 | 1.6 | 3.2 | 0.00 | 0.00 | 0.00 | 83 | 1011.0 |
| 20260509021728 | 24 | 228 | 0.0 | 0.0 | 0.00 | 0.00 | 0.00 | 83 | 1010.7 |
| 20260509021225 | 24 | 281 | 0.0 | 0.0 | 0.00 | 0.00 | 0.00 | 83 | 1010.7 |
| 20260509020723 | 25 | 215 | 0.0 | 1.6 | 0.00 | 0.00 | 0.00 | 82 | 1010.7 |
| 20260509020219 | 25 | 198 | 0.0 | 0.0 | 0.00 | 0.00 | 0.00 | 81 | 1010.7 |
| 20260509015718 | 25 | 213 | 1.6 | 1.6 | 0.00 | 0.00 | 0.00 | 81 | 1010.3 |
| 20260509015216 | 25 | 233 | 0.0 | 1.6 | 0.00 | 0.00 | 0.00 | 81 | 1010.3 |
| 20260509014712 | 25 | 178 | 1.6 | 1.6 | 0.00 | 0.00 | 0.00 | 81 | 1010.3 |
| 20260509014209 | 25 | 172 | 0.0 | 0.0 | 0.00 | 0.00 | 0.00 | 81 | 1010.7 |
| 20260509013705 | 25 | 219 | 3.2 | 3.2 | 0.00 | 0.00 | 0.00 | 81 | 1010.3 |
| 20260509013201 | 25 | 180 | 1.6 | 3.2 | 0.00 | 0.00 | 0.00 | 80 | 1010.3 |
| 20260509012658 | 25 | 173 | 3.2 | 3.2 | 0.00 | 0.00 | 0.00 | 81 | 1010.3 |
| 20260509012154 | 25 | 148 | 6.4 | 8.0 | 0.00 | 0.00 | 0.00 | 80 | 1010.7 |
| 20260509011652 | 25 | 240 | 1.6 | 3.2 | 0.00 | 0.00 | 0.00 | 80 | 1010.3 |
| 20260509011149 | 25 | 165 | 3.2 | 4.8 | 0.00 | 0.00 | 0.00 | 80 | 1010.3 |
| 20260509010647 | 25 | 166 | 4.8 | 8.0 | 0.00 | 0.00 | 0.00 | 80 | 1010.3 |
| 20260509010143 | 25 | 203 | 1.6 | 1.6 | 0.00 | 0.00 | 0.00 | 79 | 1010.3 |
| 20260509005641 | 25 | 225 | 3.2 | 3.2 | 0.00 | 0.00 | 0.00 | 79 | 1010.0 |
| 20260509005137 | 25 | 69 | 0.0 | 1.6 | 0.00 | 0.00 | 0.00 | 79 | 1010.0 |
| 20260509004633 | 25 | 122 | 4.8 | 4.8 | 0.00 | 0.00 | 0.00 | 78 | 1010.0 |
| 20260509004130 | 25 | 158 | 0.0 | 1.6 | 0.00 | 0.00 | 0.00 | 78 | 1010.3 |
| 20260509003629 | 26 | 158 | 3.2 | 3.2 | 0.00 | 0.00 | 0.00 | 78 | 1010.3 |
| 20260509003126 | 26 | 240 | 1.6 | 1.6 | 0.00 | 0.00 | 0.00 | 78 | 1010.0 |
| 20260509002623 | 25 | 174 | 4.8 | 8.0 | 0.00 | 0.00 | 0.00 | 78 | 1010.0 |
| 20260509002120 | 26 | 221 | 4.8 | 4.8 | 0.00 | 0.00 | 0.00 | 77 | 1010.3 |
| 20260509001618 | 26 | 234 | 4.8 | 4.8 | 0.00 | 0.00 | 0.00 | 77 | 1010.3 |
| 20260509001113 | 26 | 172 | 4.8 | 4.8 | 0.00 | 0.00 | 0.00 | 77 | 1010.3 |
| 20260509000612 | 26 | 203 | 1.6 | 1.6 | 0.00 | 0.00 | 0.00 | 78 | 1010.3 |
| 20260509000108 | 26 | 170 | 4.8 | 8.0 | 0.00 | 0.00 | 0.00 | 77 | 1010.7 |
| 20260508235606 | 26 | 176 | 3.2 | 3.2 | 0.00 | 0.00 | 0.00 | 76 | 1010.3 |
| 20260508235102 | 26 | 128 | 4.8 | 9.7 | 0.00 | 0.00 | 0.00 | 76 | 1010.3 |
| 20260508234600 | 26 | 140 | 8.0 | 11.3 | 0.00 | 0.00 | 0.00 | 76 | 1010.3 |
| 20260508234056 | 26 | 152 | 4.8 | 8.0 | 0.00 | 0.00 | 0.00 | 75 | 1010.3 |
| 20260508233555 | 26 | 196 | 1.6 | 1.6 | 0.00 | 0.00 | 0.00 | 76 | 1010.3 |
| 20260508233052 | 26 | 230 | 4.8 | 8.0 | 0.00 | 0.00 | 0.00 | 74 | 1010.3 |
| 20260508232549 | 26 | 145 | 1.6 | 3.2 | 0.00 | 0.00 | 0.00 | 74 | 1010.0 |
| 20260508232046 | 27 | 236 | 3.2 | 3.2 | 0.00 | 0.00 | 0.00 | 73 | 1010.0 |
| 20260508231544 | 27 | 67 | 4.8 | 4.8 | 0.00 | 0.00 | 0.00 | 73 | 1010.0 |
| 20260508231041 | 27 | 213 | 3.2 | 3.2 | 0.00 | 0.00 | 0.00 | 72 | 1010.0 |
| 20260508230537 | 27 | 197 | 3.2 | 4.8 | 0.00 | 0.00 | 0.00 | 72 | 1010.3 |
| 20260508230034 | 26 | 250 | 3.2 | 3.2 | 0.00 | 0.00 | 0.00 | 72 | 1010.3 |
| 20260508225531 | 27 | 263 | 0.0 | 1.6 | 0.00 | 0.00 | 0.00 | 73 | 1010.3 |
| 20260508225028 | 27 | 205 | 3.2 | 3.2 | 0.00 | 0.00 | 0.00 | 72 | 1010.0 |
| 20260508224526 | 27 | 172 | 4.8 | 4.8 | 0.00 | 0.00 | 0.00 | 71 | 1010.0 |
| 20260508224023 | 27 | 206 | 3.2 | 4.8 | 0.00 | 0.00 | 0.00 | 71 | 1010.3 |
| 20260508223521 | 27 | 76 | 3.2 | 4.8 | 0.00 | 0.00 | 0.00 | 72 | 1010.0 |
| 20260508223018 | 27 | 250 | 3.2 | 3.2 | 0.00 | 0.00 | 0.00 | 71 | 1010.3 |
| 20260508222515 | 27 | 263 | 1.6 | 3.2 | 0.00 | 0.00 | 0.00 | 70 | 1010.0 |
| 20260508222012 | 27 | 244 | 3.2 | 3.2 | 0.00 | 0.00 | 0.00 | 70 | 1010.0 |
| 20260508221508 | 27 | 115 | 3.2 | 3.2 | 0.00 | 0.00 | 0.00 | 69 | 1010.3 |
| 20260508221004 | 27 | 172 | 4.8 | 9.7 | 0.00 | 0.00 | 0.00 | 69 | 1010.3 |
| 20260508220501 | 27 | 182 | 4.8 | 4.8 | 0.00 | 0.00 | 0.00 | 70 | 1010.3 |
| 20260508215956 | 27 | 149 | 4.8 | 4.8 | 0.00 | 0.00 | 0.00 | 69 | 1010.3 |
| 20260508215454 | 27 | 150 | 1.6 | 4.8 | 0.00 | 0.00 | 0.00 | 69 | 1010.7 |
| 20260508214950 | 27 | 160 | 3.2 | 3.2 | 0.00 | 0.00 | 0.00 | 69 | 1010.3 |
| 20260508214448 | 28 | 157 | 3.2 | 3.2 | 0.00 | 0.00 | 0.00 | 68 | 1010.7 |
| 20260508213944 | 27 | 191 | 0.0 | 1.6 | 0.00 | 0.00 | 0.00 | 70 | 1010.7 |
| 20260508213442 | 27 | 172 | 3.2 | 4.8 | 0.00 | 0.00 | 0.00 | 70 | 1010.3 |
| 20260508212937 | 26 | 176 | 1.6 | 1.6 | 0.00 | 0.00 | 0.00 | 72 | 1010.3 |
| 20260508212434 | 27 | 238 | 1.6 | 1.6 | 0.00 | 0.00 | 0.00 | 70 | 1010.7 |